• en France
  • Liste des pays
  • À 7 jours
  • Température de l'eau
  • Carte satellitaire
  • Carte météo
  • Widgets météo
  • user-avatar
    Se connecter

    Météo par heure à Rangpur

    Ce jour, 23 Juillet, Lundi

    Heure Température Précipitation Vent Pression Humidité
    00:00 +31°C° 0 mm 3 m/s 748 mmHg 76%
    01:00 +30°C° 0 mm 3 m/s 748 mmHg 77%
    02:00 +30°C° 0 mm 3 m/s 748 mmHg 77%
    03:00 +30°C° 0 mm 3 m/s 747 mmHg 78%
    04:00 +30°C° 0 mm 3 m/s 747 mmHg 78%
    05:00 +29°C° 0 mm 3 m/s 747 mmHg 79%
    06:00 +29°C° 0 mm 3 m/s 747 mmHg 83%
    07:00 +30°C° 0,5 mm 4 m/s 747 mmHg 80%
    08:00 +32°C° 0,5 mm 5 m/s 747 mmHg 77%
    09:00 +33°C° 0,5 mm 5 m/s 747 mmHg 74%
    10:00 +34°C° 1,1 mm 5 m/s 747 mmHg 70%
    11:00 +35°C° 1,1 mm 5 m/s 747 mmHg 65%
    12:00 +36°C° 1,1 mm 5 m/s 747 mmHg 61%
    13:00 +36°C° 0,7 mm 5 m/s 746 mmHg 60%
    14:00 +37°C° 0,7 mm 5 m/s 745 mmHg 59%
    15:00 +37°C° 0,7 mm 5 m/s 745 mmHg 58%
    16:00 +36°C° 0,5 mm 4 m/s 745 mmHg 60%
    17:00 +36°C° 0,5 mm 4 m/s 745 mmHg 63%
    18:00 +35°C° 0,5 mm 4 m/s 745 mmHg 66%
    19:00 +34°C° 1,8 mm 4 m/s 746 mmHg 70%
    20:00 +33°C° 1,8 mm 4 m/s 746 mmHg 75%
    21:00 +32°C° 1,8 mm 4 m/s 747 mmHg 79%
    22:00 +32°C° 1,8 mm 4 m/s 747 mmHg 80%
    23:00 +32°C° 1,8 mm 4 m/s 747 mmHg 81%

    Demain, 24 Juillet, Mardi

    Heure Température Précipitation Vent Pression Humidité
    00:00 +30°C° 1,8 mm 3 m/s 748 mmHg 83%
    01:00 +30°C° 1,9 mm 3 m/s 747 mmHg 84%
    02:00 +30°C° 1,9 mm 3 m/s 747 mmHg 85%
    03:00 +30°C° 1,9 mm 3 m/s 746 mmHg 86%
    04:00 +30°C° 1,5 mm 3 m/s 746 mmHg 86%
    05:00 +29°C° 1,5 mm 3 m/s 746 mmHg 86%
    06:00 +29°C° 1,5 mm 3 m/s 746 mmHg 86%
    07:00 +30°C° 1 mm 4 m/s 747 mmHg 83%
    08:00 +32°C° 1 mm 4 m/s 747 mmHg 81%
    09:00 +32°C° 1 mm 4 m/s 747 mmHg 78%
    10:00 +33°C° 1,4 mm 4 m/s 747 mmHg 76%
    11:00 +33°C° 1,4 mm 4 m/s 747 mmHg 73%
    12:00 +34°C° 1,4 mm 4 m/s 747 mmHg 70%
    13:00 +34°C° 1,7 mm 4 m/s 747 mmHg 69%
    14:00 +35°C° 1,7 mm 3 m/s 746 mmHg 68%
    15:00 +35°C° 1,7 mm 3 m/s 746 mmHg 67%
    16:00 +34°C° 1 mm 3 m/s 746 mmHg 70%
    17:00 +34°C° 1 mm 2 m/s 746 mmHg 73%
    18:00 +32°C° 1 mm 2 m/s 746 mmHg 76%
    19:00 +32°C° 0,4 mm 2 m/s 746 mmHg 78%
    20:00 +31°C° 0,4 mm 3 m/s 747 mmHg 81%
    21:00 +31°C° 0,4 mm 3 m/s 747 mmHg 83%
    22:00 +30°C° 1,3 mm 3 m/s 747 mmHg 83%
    23:00 +30°C° 1,3 mm 4 m/s 747 mmHg 84%

    Après-demain, 25 Juillet, Mercredi

    Heure Température Précipitation Vent Pression Humidité
    00:00 +30°C° 1,3 mm 4 m/s 748 mmHg 84%
    01:00 +30°C° 1,8 mm 4 m/s 747 mmHg 85%
    02:00 +29°C° 1,8 mm 4 m/s 747 mmHg 85%
    03:00 +29°C° 1,8 mm 4 m/s 746 mmHg 85%
    04:00 +29°C° 2,1 mm 3 m/s 746 mmHg 86%
    05:00 +29°C° 2,1 mm 3 m/s 746 mmHg 86%
    06:00 +29°C° 2,1 mm 3 m/s 746 mmHg 86%
    07:00 +30°C° 1,3 mm 3 m/s 747 mmHg 82%
    08:00 +31°C° 1,3 mm 3 m/s 747 mmHg 78%
    09:00 +33°C° 1,3 mm 4 m/s 747 mmHg 74%
    10:00 +34°C° 1,3 mm 4 m/s 747 mmHg 70%
    11:00 +35°C° 1,3 mm 4 m/s 747 mmHg 66%
    12:00 +36°C° 1,3 mm 4 m/s 747 mmHg 62%
    13:00 +36°C° 0,4 mm 4 m/s 746 mmHg 61%
    14:00 +37°C° 0,4 mm 4 m/s 746 mmHg 60%
    15:00 +37°C° 0,4 mm 4 m/s 745 mmHg 60%
    16:00 +36°C° 2,5 mm 3 m/s 745 mmHg 65%
    17:00 +35°C° 2,5 mm 2 m/s 745 mmHg 69%
    18:00 +33°C° 2,5 mm 1 m/s 745 mmHg 74%
    19:00 +33°C° 2,6 mm 1 m/s 746 mmHg 77%
    20:00 +32°C° 2,6 mm 2 m/s 746 mmHg 80%
    21:00 +31°C° 2,6 mm 2 m/s 747 mmHg 83%
    22:00 +31°C° 2,3 mm 2 m/s 747 mmHg 83%
    23:00 +31°C° 2,3 mm 2 m/s 747 mmHg 84%

    26 Juillet, Jeudi

    Heure Température Précipitation Vent Pression Humidité
    00:00 +30°C° 2,3 mm 2 m/s 747 mmHg 85%
    01:00 +30°C° 1,5 mm 2 m/s 746 mmHg 85%
    02:00 +30°C° 1,5 mm 2 m/s 746 mmHg 86%
    03:00 +30°C° 1,5 mm 2 m/s 746 mmHg 86%
    04:00 +30°C° 0,4 mm 1 m/s 746 mmHg 87%
    05:00 +30°C° 0,4 mm 1 m/s 746 mmHg 87%
    06:00 +29°C° 0,4 mm 1 m/s 746 mmHg 88%
    07:00 +30°C° 0,4 mm 2 m/s 747 mmHg 83%
    08:00 +31°C° 0,4 mm 2 m/s 747 mmHg 79%
    09:00 +32°C° 0,4 mm 2 m/s 747 mmHg 74%
    10:00 +34°C° 0,1 mm 2 m/s 747 mmHg 70%
    11:00 +35°C° 0,1 mm 2 m/s 747 mmHg 65%
    12:00 +36°C° 0,1 mm 2 m/s 746 mmHg 61%
    13:00 +36°C° 0,1 mm 2 m/s 746 mmHg 60%
    14:00 +37°C° 0,1 mm 2 m/s 745 mmHg 58%
    15:00 +37°C° 0,1 mm 2 m/s 744 mmHg 57%
    16:00 +37°C° 0,1 mm 2 m/s 744 mmHg 59%
    17:00 +35°C° 0,1 mm 1 m/s 744 mmHg 61%
    18:00 +35°C° 0,1 mm 1 m/s 744 mmHg 64%
    19:00 +34°C° 0,1 mm 1 m/s 744 mmHg 66%
    20:00 +34°C° 0,1 mm 1 m/s 745 mmHg 69%
    21:00 +34°C° 0,1 mm 2 m/s 745 mmHg 72%
    22:00 +32°C° 2,3 mm 2 m/s 745 mmHg 75%
    23:00 +32°C° 2,3 mm 2 m/s 745 mmHg 78%

    27 Juillet, Vendredi

    Heure Température Précipitation Vent Pression Humidité
    00:00 +31°C° 2,3 mm 2 m/s 745 mmHg 82%
    01:00 +31°C° 1,4 mm 1 m/s 745 mmHg 82%
    02:00 +31°C° 1,4 mm 1 m/s 744 mmHg 82%
    03:00 +31°C° 1,4 mm 1 m/s 744 mmHg 83%
    04:00 +31°C° 1,3 mm 2 m/s 744 mmHg 83%
    05:00 +30°C° 1,3 mm 2 m/s 744 mmHg 84%
    06:00 +30°C° 1,3 mm 2 m/s 745 mmHg 85%
    07:00 +31°C° 1,4 mm 2 m/s 745 mmHg 81%
    08:00 +32°C° 1,4 mm 2 m/s 745 mmHg 78%
    09:00 +33°C° 1,4 mm 3 m/s 746 mmHg 74%
    10:00 +34°C° 0,5 mm 2 m/s 746 mmHg 71%
    11:00 +35°C° 0,5 mm 2 m/s 745 mmHg 69%
    12:00 +35°C° 0,5 mm 2 m/s 745 mmHg 66%
    13:00 +35°C° 0,2 mm 2 m/s 745 mmHg 65%
    14:00 +36°C° 0,2 mm 2 m/s 744 mmHg 65%
    15:00 +36°C° 0,2 mm 2 m/s 743 mmHg 64%
    16:00 +35°C° 0,5 mm 2 m/s 744 mmHg 67%
    17:00 +35°C° 0,5 mm 2 m/s 744 mmHg 70%
    18:00 +34°C° 0,5 mm 2 m/s 744 mmHg 72%
    19:00 +34°C° 1,4 mm 2 m/s 744 mmHg 75%
    20:00 +32°C° 1,4 mm 2 m/s 745 mmHg 78%
    21:00 +31°C° 1,4 mm 3 m/s 746 mmHg 81%
    22:00 +31°C° 3 mm 3 m/s 746 mmHg 82%
    23:00 +31°C° 3 mm 3 m/s 746 mmHg 83%

    28 Juillet, Samedi

    Heure Température Précipitation Vent Pression Humidité
    00:00 +31°C° 3 mm 3 m/s 746 mmHg 84%
    01:00 +30°C° 2,7 mm 3 m/s 745 mmHg 85%
    02:00 +30°C° 2,7 mm 3 m/s 745 mmHg 86%
    03:00 +30°C° 2,7 mm 3 m/s 745 mmHg 87%
    04:00 +30°C° 1,4 mm 3 m/s 745 mmHg 88%
    05:00 +29°C° 1,4 mm 2 m/s 745 mmHg 89%
    06:00 +29°C° 1,4 mm 2 m/s 745 mmHg 89%
    07:00 +29°C° 0,8 mm 3 m/s 745 mmHg 89%
    08:00 +30°C° 0,8 mm 3 m/s 746 mmHg 88%
    09:00 +30°C° 0,8 mm 3 m/s 746 mmHg 87%
    10:00 +30°C° 1,6 mm 4 m/s 746 mmHg 85%
    11:00 +32°C° 1,6 mm 4 m/s 746 mmHg 83%
    12:00 +32°C° 1,6 mm 4 m/s 746 mmHg 80%
    13:00 +32°C° 1,8 mm 4 m/s 746 mmHg 81%
    14:00 +32°C° 1,8 mm 4 m/s 746 mmHg 81%
    15:00 +32°C° 1,8 mm 4 m/s 746 mmHg 81%
    16:00 +32°C° 1,7 mm 4 m/s 746 mmHg 83%
    17:00 +30°C° 1,7 mm 4 m/s 746 mmHg 84%
    18:00 +30°C° 1,7 mm 4 m/s 746 mmHg 86%
    19:00 +29°C° 1,1 mm 4 m/s 747 mmHg 87%
    20:00 +29°C° 1,1 mm 4 m/s 747 mmHg 88%
    21:00 +29°C° 1,1 mm 4 m/s 748 mmHg 89%
    22:00 +29°C° 0,5 mm 3 m/s 747 mmHg 89%
    23:00 +28°C° 0,5 mm 3 m/s 747 mmHg 90%
    Voir plus